Regional Weather Roundup
Issued by NWS

Home | Current Version | Previous Version | Text Only | Print | Product List | Glossary Off
Versions: 1 2 3 4 5 6 7 8 9 10 11 12 13 14 15 16 17 18 19 20 21 22 23 24 25 26 27 28 29 30 31 32 33 34 35 36 37 38 39 40 41 42 43 44 45 46 47 48 49 50

000
ASUS43 KLMK 242302
RWRKY
KENTUCKY REGIONAL WEATHER ROUNDUP
NATIONAL WEATHER SERVICE LOUISVILLE KY
700 PM EDT SAT SEP 24 2016

NOTE "FAIR" INDICATES FEW OR NO CLOUDS BELOW 12,000 FEET
WITH NO SIGNIFICANT WEATHER AND/OR OBSTRUCTIONS TO VISIBILITY.

KYZ001>023-026-027-061>063-070>075-250000-
WESTERN AND SOUTH CENTRAL KENTUCKY

CITY           SKY/WX    TMP DP  RH WIND       PRES   REMARKS
PADUCAH        CLEAR     87  69  54 E5        30.02S HX  91
HENDERSON      CLEAR     88  63  42 N3        30.03S
OWENSBORO      CLEAR    N/A N/A N/A NE6       30.05S
HOPKINSVILLE   CLEAR     84  69  60 NE6       30.05S
BOWLING GREEN  CLEAR     86  66  51 NE5       30.07S
GLASGOW        NOT AVBL
$$

KYZ024-025-028>034-038-045-046-053-250000-
NORTH CENTRAL KENTUCKY

CITY           SKY/WX    TMP DP  RH WIND       PRES   REMARKS
LOUISVILLE/SDF PTCLDY    88  59  37 NE7       30.06R
LOUISVILLE/LOU PTCLDY    88  62  41 N5        30.07S
FORT KNOX      CLEAR     83  66  57 NW2       30.06S
$$

KYZ035>037-039>044-047>052-055>060-089>105-250000-
NORTHEAST KENTUCKY

CITY           SKY/WX    TMP DP  RH WIND       PRES   REMARKS
LEXINGTON      CLEAR     84  63  49 N7        30.09R
COVINGTON      CLEAR     81  67  62 NE10      30.11S
FRANKFORT      CLEAR     86  65  49 N6        30.08R
$$

KYZ054-064>069-076>088-106>120-250000-
SOUTHEAST KENTUCKY

CITY           SKY/WX    TMP DP  RH WIND       PRES   REMARKS
JACKSON        CLEAR     83  62  49 VRB3      30.11R
LONDON         CLEAR     83  62  49 NE3       30.10S
SOMERSET       CLEAR     82  61  47 CALM      30.10S
MIDDLESBORO    CLEAR     82  65  56 CALM      30.10S
MONTICELLO     CLEAR     84  65  52 N12       30.10S
$$




USA.gov is the U.S. government's official web portal to all federal, state and local government web resources and services.